Total_Precipitation_Accumulation
0.00 0.00 0.00 0.00 0.00 0.00 0.02 0.06 0.10 0.06 0.02 0.01 0.02 0.03 0.04 0.04 0.03 0.05 0.04 0.04 0.05 0.06 0.07 0.08 0.08 0.09 0.10 0.11 0.15 0.22 0.29 0.33 0.37 0.42 0.47 0.51 0.54 0.61
0.00 0.00 0.00 0.00 0.00 0.00 0.01 0.02 0.06 0.08 0.04 0.01 0.01 0.03 0.06 0.06 0.05 0.06 0.07 0.09 0.11 0.11 0.11 0.11 0.12 0.15 0.16 0.16 0.16 0.18 0.24 0.30 0.32 0.33 0.36 0.39 0.43 0.48
0.00 0.00 0.00 0.00 0.00 0.00 0.00 0.01 0.01 0.04 0.05 0.01 0.00 0.01 0.04 0.05 0.05 0.06 0.06 0.06 0.06 0.08 0.10 0.11 0.12 0.16 0.18 0.20 0.20 0.20 0.23 0.28 0.32 0.34 0.37 0.40 0.42 0.42
0.00 0.00 0.00 0.00 0.00 0.00 0.00 0.00 0.00 0.02 0.05 0.04 0.01 0.00 0.01 0.03 0.04 0.04 0.05 0.06 0.05 0.06 0.09 0.11 0.13 0.17 0.20 0.21 0.21 0.21 0.22 0.25 0.27 0.29 0.32 0.35 0.38 0.43
0.00 0.00 0.00 0.00 0.00 0.00 0.00 0.00 0.01 0.02 0.04 0.06 0.03 0.01 0.01 0.02 0.03 0.03 0.04 0.05 0.05 0.07 0.08 0.11 0.15 0.18 0.20 0.21 0.21 0.20 0.20 0.22 0.24 0.27 0.31 0.36 0.40 0.43
0.00 0.00 0.00 0.00 0.00 0.00 0.00 0.01 0.02 0.04 0.05 0.07 0.07 0.05 0.04 0.03 0.04 0.04 0.04 0.04 0.05 0.05 0.05 0.06 0.09 0.11 0.12 0.15 0.18 0.19 0.20 0.24 0.29 0.34 0.38 0.42 0.44 0.45
0.00 0.00 0.00 0.00 0.00 0.01 0.02 0.03 0.04 0.06 0.08 0.09 0.08 0.08 0.06 0.06 0.06 0.06 0.07 0.06 0.04 0.04 0.04 0.03 0.04 0.05 0.06 0.09 0.14 0.19 0.24 0.30 0.37 0.46 0.55 0.60 0.61 0.58
0.00 0.00 0.00 0.00 0.00 0.01 0.02 0.04 0.06 0.09 0.11 0.13 0.12 0.10 0.05 0.04 0.06 0.09 0.12 0.13 0.09 0.04 0.05 0.03 0.03 0.04 0.07 0.11 0.19 0.24 0.28 0.34 0.40 0.47 0.54 0.56 0.58 0.62
0.00 0.00 0.00 0.00 0.01 0.01 0.02 0.04 0.06 0.08 0.09 0.10 0.09 0.07 0.07 0.09 0.13 0.18 0.16 0.14 0.09 0.04 0.05 0.06 0.04 0.06 0.08 0.14 0.24 0.28 0.33 0.40 0.44 0.48 0.51 0.52 0.52 0.53
0.00 0.00 0.00 0.01 0.01 0.03 0.06 0.08 0.05 0.03 0.02 0.03 0.06 0.10 0.12 0.11 0.12 0.14 0.13 0.12 0.07 0.04 0.07 0.13 0.09 0.10 0.09 0.13 0.23 0.25 0.27 0.33 0.39 0.42 0.41 0.39 0.38 0.41
0.00 0.01 0.02 0.02 0.03 0.09 0.13 0.09 0.04 0.01 0.01 0.04 0.08 0.09 0.07 0.06 0.07 0.16 0.24 0.26 0.17 0.06 0.06 0.11 0.09 0.11 0.15 0.17 0.22 0.26 0.26 0.29 0.33 0.35 0.32 0.28 0.27 0.29
0.02 0.02 0.02 0.03 0.08 0.14 0.11 0.08 0.06 0.04 0.04 0.03 0.02 0.01 0.01 0.02 0.07 0.17 0.37 0.48 0.33 0.17 0.09 0.16 0.17 0.20 0.26 0.20 0.21 0.23 0.23 0.27 0.29 0.29 0.26 0.25 0.24 0.20
0.05 0.02 0.02 0.06 0.11 0.10 0.07 0.05 0.06 0.08 0.06 0.03 0.01 0.01 0.01 0.02 0.04 0.07 0.19 0.44 0.50 0.30 0.12 0.23 0.28 0.23 0.28 0.25 0.24 0.25 0.27 0.33 0.37 0.38 0.35 0.30 0.24 0.17
0.05 0.03 0.05 0.10 0.07 0.04 0.02 0.03 0.06 0.06 0.03 0.03 0.03 0.03 0.03 0.03 0.03 0.04 0.07 0.15 0.30 0.32 0.19 0.28 0.37 0.29 0.31 0.31 0.31 0.32 0.32 0.40 0.52 0.57 0.54 0.47 0.38 0.32
0.06 0.09 0.09 0.05 0.02 0.01 0.01 0.02 0.03 0.02 0.05 0.09 0.08 0.04 0.03 0.03 0.04 0.06 0.08 0.12 0.19 0.23 0.25 0.30 0.35 0.34 0.37 0.37 0.32 0.34 0.40 0.49 0.64 0.74 0.64 0.49 0.39 0.35
0.10 0.09 0.04 0.01 0.00 0.00 0.01 0.00 0.01 0.02 0.07 0.14 0.12 0.06 0.03 0.04 0.06 0.12 0.20 0.23 0.28 0.27 0.29 0.33 0.35 0.36 0.35 0.33 0.32 0.33 0.41 0.55 0.69 0.80 0.66 0.48 0.38 0.33
0.10 0.03 0.00 0.00 0.01 0.01 0.00 0.00 0.01 0.01 0.04 0.08 0.11 0.10 0.07 0.08 0.10 0.18 0.31 0.38 0.41 0.38 0.36 0.32 0.28 0.27 0.30 0.31 0.32 0.33 0.37 0.49 0.62 0.70 0.56 0.43 0.40 0.34
0.04 0.01 0.01 0.02 0.02 0.02 0.02 0.02 0.01 0.03 0.07 0.12 0.14 0.15 0.16 0.17 0.19 0.24 0.37 0.45 0.45 0.42 0.39 0.34 0.27 0.24 0.26 0.28 0.32 0.36 0.37 0.47 0.56 0.55 0.35 0.24 0.30 0.30
0.01 0.02 0.03 0.02 0.02 0.02 0.03 0.04 0.04 0.04 0.10 0.18 0.22 0.22 0.23 0.23 0.28 0.33 0.40 0.42 0.41 0.36 0.28 0.21 0.18 0.20 0.22 0.23 0.25 0.32 0.35 0.38 0.36 0.35 0.26 0.15 0.19 0.23
0.03 0.04 0.03 0.02 0.02 0.04 0.05 0.07 0.08 0.09 0.13 0.20 0.24 0.25 0.28 0.31 0.33 0.36 0.39 0.38 0.30 0.20 0.11 0.06 0.07 0.12 0.16 0.19 0.22 0.31 0.32 0.26 0.19 0.18 0.18 0.15 0.17 0.17
0.04 0.03 0.02 0.02 0.03 0.05 0.07 0.09 0.12 0.16 0.21 0.27 0.29 0.30 0.32 0.34 0.34 0.34 0.31 0.24 0.14 0.07 0.05 0.03 0.03 0.05 0.09 0.10 0.13 0.20 0.27 0.25 0.14 0.12 0.11 0.09 0.10 0.11
0.03 0.03 0.02 0.02 0.04 0.07 0.10 0.12 0.15 0.18 0.22 0.27 0.31 0.33 0.34 0.34 0.29 0.22 0.14 0.08 0.05 0.05 0.04 0.03 0.02 0.01 0.03 0.04 0.07 0.10 0.13 0.15 0.12 0.07 0.04 0.03 0.04 0.06
0.03 0.03 0.03 0.04 0.06 0.09 0.12 0.14 0.18 0.21 0.26 0.30 0.32 0.31 0.27 0.20 0.12 0.07 0.05 0.04 0.05 0.05 0.04 0.03 0.02 0.02 0.02 0.02 0.03 0.05 0.06 0.06 0.06 0.05 0.06 0.04 0.04 0.04